[[{"header":{"parameterUnit":"m.s-1","parameterCategory":1,"la1":30.2991,"la2":30.254,"lo1":-89.0895,"lo2":-89.0444,"dy":0.0017,"dx":0.0017,"nx":28,"ny":28,"refTime":"2024-12-17T03:00:00:Z","depth":0,"parameterNumber":2,"parameterNumberName":"U-component_of_WINDS"},"data":[0,0,0,0,0,0,0,0,0,0,0,0,0,0,0,0,0,0,0,0,0,0,0,0,0,0,0,0,0,0,0,0,0,0,0,0,0,0,0,0,0,0,0,0,0,0,0,0,0,0,0,0,0,0,0,0,0,0,-1.0633,-1.0632,0,-1.0555,-1.0554,-1.0553,-1.0511,-1.0511,-1.0511,-1.0511,-1.0428,-1.0426,-1.0423,0,0,0,0,0,0,0,0,0,0,0,0,0,-1.0744,-1.0743,-1.0633,-1.0632,-1.0631,-1.0555,-1.0554,-1.0553,-1.0511,-1.0511,-1.0511,-1.0511,-1.0428,-1.0426,-1.0423,0,0,0,0,0,0,0,0,0,0,0,0,0,-1.0684,-1.0742,-1.0633,-1.0601,-1.0598,-1.0555,-1.0554,-1.0552,-1.0511,-1.0511,-1.0511,-1.0511,-1.0429,-1.0426,-1.0423,-1.0405,0,0,-1.0413,-1.0412,0,0,0,0,0,0,0,0,-1.0688,-1.068,-1.0607,-1.0603,-1.0599,-1.0542,-1.0562,-1.0503,-1.0511,-1.0544,-1.0511,-1.0511,-1.0466,-1.046,-1.0445,-1.0401,-1.0398,-1.0413,-1.0411,-1.0409,-1.0409,0,0,0,0,0,0,0,-1.0692,-1.0683,-1.0602,-1.0606,-1.0601,-1.059,-1.0581,-1.0551,-1.0506,-1.0541,-1.0538,-1.0529,-1.0464,-1.0448,-1.0443,-1.0397,-1.0413,-1.041,-1.0408,-1.0407,-1.0335,-1.0335,0,0,0,0,0,0,-1.0701,-1.0687,-1.0604,-1.0599,-1.0644,-1.0588,-1.0578,-1.0561,-1.0506,-1.0498,-1.0529,-1.0528,-1.0454,-1.0447,-1.044,-1.0416,-1.0409,-1.0406,-1.0405,-1.0335,-1.0335,-1.0336,0,0,0,0,0,0,-1.0704,-1.0694,-1.0607,-1.0642,-1.063,-1.0586,-1.0567,-1.0559,-1.0544,-1.0498,-1.0489,-1.0522,-1.0453,-1.0444,-1.0415,-1.0413,-1.0405,-1.0402,-1.0335,-1.0335,-1.0335,-1.0368,0,0,0,0,0,0,-1.0707,-1.0696,-1.0689,-1.0643,-1.0629,-1.0584,-1.0567,-1.0558,-1.0539,-1.0536,-1.0489,-1.0481,-1.0453,-1.042,-1.0411,-1.0408,-1.04,-1.0335,-1.0335,-1.0335,-1.0367,-1.037,-1.0372,0,0,0,0,0,-1.0712,-1.07,-1.0689,-1.0679,-1.0619,-1.0584,-1.0576,-1.0545,-1.0539,-1.0531,-1.0502,-1.0482,-1.0414,-1.0417,-1.0407,-1.0403,-1.0335,-1.0335,-1.0335,-1.0366,-1.0369,-1.0371,0,0,0,0,0,0,-1.0746,-1.0694,-1.068,-1.0654,-1.0624,-1.0577,-1.0567,-1.0549,-1.0519,-1.0517,-1.0479,-1.0469,-1.0443,-1.042,-1.0424,-1.0383,-1.0373,-1.0371,-1.0399,-1.0402,-1.0404,-1.041,-1.0397,0,0,0,0,0,-1.0751,-1.0728,-1.0683,-1.0664,-1.065,-1.0611,-1.0594,-1.0573,-1.054,-1.0527,-1.0496,-1.0464,-1.0435,-1.0417,-1.0388,-1.0364,-1.0353,-1.0356,-1.0358,-1.036,-1.0359,-1.0345,-1.0346,-1.0336,-1.0336,-1.0336,0,0,-1.076,-1.0729,-1.0716,-1.067,-1.0644,-1.0621,-1.0601,-1.0576,-1.0558,-1.0523,-1.0494,-1.047,-1.0431,-1.0405,-1.0391,-1.0385,-1.036,-1.036,-1.0362,-1.036,-1.0345,-1.0346,-1.0347,-1.0336,-1.0336,-1.0336,0,0,-1.0765,-1.0739,-1.072,-1.0696,-1.0658,-1.0632,-1.0628,-1.0585,-1.0568,-1.0538,-1.0512,-1.0489,-1.0441,-1.0415,-1.0396,-1.0393,-1.0373,-1.0384,-1.0395,-1.0382,-1.0383,-1.0383,-1.0383,-1.0383,-1.0383,-1.0383,-1.0383,0,-1.078,-1.0744,-1.0713,-1.069,-1.0671,-1.064,-1.0621,-1.0599,-1.0553,-1.054,-1.0534,-1.0473,-1.0445,-1.0412,-1.0412,-1.0397,-1.0391,-1.0389,-1.0386,-1.0386,-1.0386,-1.0385,-1.0384,-1.0385,-1.0385,-1.0385,-1.0384,0,-1.0766,-1.0742,-1.0731,-1.069,-1.0669,-1.0649,-1.0614,-1.0597,-1.0578,-1.0553,-1.0523,-1.0489,-1.0453,-1.0444,-1.0424,-1.0409,-1.0406,-1.0393,-1.0381,-1.0389,-1.0387,-1.0387,-1.0387,-1.0387,-1.0386,-1.0386,0,0,-1.0789,-1.0732,-1.0728,-1.071,-1.0666,-1.0646,-1.0625,-1.0591,-1.0577,-1.0547,-1.0528,-1.0488,-1.0477,-1.0455,-1.0432,-1.0421,-1.0422,-1.0409,-1.0408,-1.0413,-1.0403,-1.0413,-1.0413,-1.0409,-1.0409,-1.0408,-1.0406,0,-1.0788,-1.0748,-1.072,-1.0691,-1.0668,-1.0639,-1.062,-1.0592,-1.0568,-1.0545,-1.0519,-1.0492,-1.0478,-1.0465,-1.0453,-1.0424,-1.0419,-1.0424,-1.039,-1.0389,-1.0401,-1.0412,-1.0422,-1.0421,-1.0405,-1.0405,-1.0405,0,-1.078,-1.0753,-1.0722,-1.0683,-1.0672,-1.0656,-1.0623,-1.0602,-1.0569,-1.0552,-1.0529,-1.0506,-1.0482,-1.0473,-1.0439,-1.0443,-1.0428,-1.0412,-1.0411,-1.0406,-1.0398,-1.0408,-1.042,-1.042,-1.0403,-1.0404,-1.0404,0,-1.0801,-1.0756,-1.0732,-1.0717,-1.067,-1.0659,-1.0639,-1.0606,-1.0588,-1.056,-1.0548,-1.0516,-1.0499,-1.0475,-1.0444,-1.0441,-1.0413,-1.0402,-1.0399,-1.04,-1.0394,-1.0395,-1.0405,-1.0385,-1.0385,-1.0385,-1.0385,0,-1.0802,-1.0784,-1.0741,-1.0726,-1.0706,-1.0674,-1.0654,-1.0631,-1.0603,-1.0583,-1.0556,-1.0537,-1.0498,-1.0475,-1.0451,-1.0427,-1.0419,-1.0405,-1.0399,-1.0408,-1.0409,-1.0397,-1.0396,-1.0385,-1.0385,-1.0385,-1.0385,0,-1.0821,-1.0791,-1.0763,-1.0722,-1.0711,-1.0698,-1.0663,-1.0647,-1.0623,-1.0599,-1.0591,-1.0553,-1.0524,-1.0492,-1.0452,-1.0436,-1.0414,-1.0404,-1.0425,-1.0422,-1.0421,-1.0422,-1.0423,-1.0422,-1.0403,-1.0403,-1.0403,0,-1.0824,-1.081,-1.0768,-1.0753,-1.0734,-1.0711,-1.0693,-1.0661,-1.0643,-1.0606,-1.0595,-1.0565,-1.0539,-1.0495,-1.0464,-1.0434,-1.0423,-1.0426,-1.0418,-1.0428,-1.0424,-1.0425,-1.0424,-1.0428,-1.0428,-1.0429,-1.0429,0,-1.0832,-1.0818,-1.0794,-1.0765,-1.0745,-1.072,-1.0694,-1.0684,-1.0646,-1.0628,-1.06,-1.058,-1.0541,-1.0511,-1.0478,-1.0456,-1.0436,-1.0432,-1.0429,-1.0438,-1.0451,-1.0444,-1.0431,-1.0432,-1.0431,-1.0431,-1.0431,-1.0431,-1.0843,-1.083,-1.0799,-1.0773,-1.075,-1.0727,-1.0711,-1.0686,-1.0662,-1.0629,-1.0611,-1.0583,-1.0551,-1.0504,-1.0483,-1.0461,-1.0454,-1.0451,-1.045,-1.045,-1.0452,-1.0455,-1.0454,-1.0454,-1.0454,-1.0454,-1.0454,0,-1.085,-1.0829,-1.0806,-1.0771,-1.0751,-1.0736,-1.0707,-1.0691,-1.0667,-1.064,-1.0616,-1.0583,-1.0555,-1.0522,-1.0492,-1.048,-1.047,-1.0473,-1.0473,-1.0469,-1.046,-1.0465,-1.0482,-1.0482,-1.0482,-1.0482,-1.0482,-1.0482,-1.0851,-1.0828,-1.0811,-1.0778,-1.0756,-1.073,-1.0715,-1.0693,-1.0671,-1.0637,-1.0614,-1.0593,-1.0564,-1.0531,-1.0505,-1.0496,-1.0486,-1.0491,-1.048,-1.0472,-1.0469,-1.0467,-1.0472,-1.0489,-1.0489,-1.0491,-1.0491,-1.0491]},{"header":{"parameterUnit":"m.s-1","parameterCategory":1,"la1":30.2991,"la2":30.254,"lo1":-89.0895,"lo2":-89.0444,"dy":0.0017,"dx":0.0017,"nx":28,"ny":28,"refTime":"2024-12-17T03:00:00:Z","depth":0,"parameterNumber":3,"parameterNumberName":"V-component_of_WINDS"},"data":[0,0,0,0,0,0,0,0,0,0,0,0,0,0,0,0,0,0,0,0,0,0,0,0,0,0,0,0,0,0,0,0,0,0,0,0,0,0,0,0,0,0,0,0,0,0,0,0,0,0,0,0,0,0,0,0,0,0,-0.4372,-0.4373,0,-0.4491,-0.4492,-0.4494,-0.4509,-0.4508,-0.4507,-0.4506,-0.4629,-0.4633,-0.4638,0,0,0,0,0,0,0,0,0,0,0,0,0,-0.4157,-0.4161,-0.4372,-0.4373,-0.4375,-0.4491,-0.4492,-0.4494,-0.4509,-0.4508,-0.4507,-0.4505,-0.4628,-0.4633,-0.4638,0,0,0,0,0,0,0,0,0,0,0,0,0,-0.4261,-0.4163,-0.4372,-0.4396,-0.44,-0.449,-0.4493,-0.4495,-0.451,-0.4508,-0.4506,-0.4505,-0.4626,-0.4632,-0.4639,-0.4713,0,0,-0.4659,-0.4662,0,0,0,0,0,0,0,0,-0.4255,-0.4269,-0.4391,-0.4395,-0.4399,-0.4483,-0.4462,-0.4568,-0.451,-0.4468,-0.4506,-0.4504,-0.4582,-0.4592,-0.4618,-0.4719,-0.4724,-0.4659,-0.4663,-0.4666,-0.4668,0,0,0,0,0,0,0,-0.4248,-0.4264,-0.4419,-0.4393,-0.4398,-0.4402,-0.4414,-0.4482,-0.4533,-0.4472,-0.4473,-0.4487,-0.4584,-0.4612,-0.4621,-0.4726,-0.4659,-0.4665,-0.4669,-0.4671,-0.4894,-0.4896,0,0,0,0,0,0,-0.4236,-0.4258,-0.4415,-0.4423,-0.4321,-0.4407,-0.4421,-0.4458,-0.4533,-0.4542,-0.4488,-0.4487,-0.4602,-0.4614,-0.4626,-0.4719,-0.4666,-0.4672,-0.4676,-0.4892,-0.4894,-0.4896,0,0,0,0,0,0,-0.4231,-0.425,-0.441,-0.4341,-0.4361,-0.4412,-0.4454,-0.4461,-0.449,-0.4545,-0.4554,-0.4508,-0.4601,-0.4617,-0.4691,-0.4723,-0.4675,-0.4681,-0.4889,-0.4892,-0.4895,-0.4905,0,0,0,0,0,0,-0.4225,-0.4248,-0.4277,-0.4341,-0.4365,-0.4474,-0.4456,-0.4465,-0.4501,-0.45,-0.4566,-0.4575,-0.4601,-0.4682,-0.4698,-0.4732,-0.4686,-0.4887,-0.4891,-0.4894,-0.4902,-0.4908,-0.4913,0,0,0,0,0,-0.4217,-0.4276,-0.4279,-0.4298,-0.4402,-0.4476,-0.449,-0.4518,-0.4503,-0.4533,-0.4568,-0.4573,-0.4716,-0.4689,-0.4708,-0.4744,-0.4885,-0.489,-0.4894,-0.49,-0.4907,-0.4913,0,0,0,0,0,0,-0.4216,-0.4285,-0.4289,-0.437,-0.4417,-0.4479,-0.4518,-0.4525,-0.4578,-0.4575,-0.4608,-0.4622,-0.4696,-0.4727,-0.4695,-0.4819,-0.4799,-0.4808,-0.4797,-0.4805,-0.481,-0.4802,-0.4692,0,0,0,0,0,-0.4224,-0.4278,-0.4336,-0.4401,-0.4424,-0.4466,-0.45,-0.4517,-0.4567,-0.4588,-0.4629,-0.4678,-0.4734,-0.477,-0.4825,-0.4905,-0.492,-0.4939,-0.4944,-0.4948,-0.4956,-0.5002,-0.5011,-0.4911,-0.4911,-0.4911,0,0,-0.4244,-0.4288,-0.432,-0.4402,-0.4441,-0.4496,-0.4484,-0.4543,-0.4584,-0.4597,-0.4671,-0.4702,-0.4758,-0.4836,-0.4873,-0.4864,-0.4987,-0.4954,-0.4957,-0.4963,-0.5007,-0.5017,-0.5025,-0.4914,-0.4914,-0.4913,0,0,-0.4308,-0.4346,-0.4405,-0.4444,-0.4502,-0.4529,-0.4543,-0.4603,-0.4624,-0.4698,-0.4709,-0.4758,-0.4853,-0.4894,-0.4927,-0.5002,-0.5009,-0.5019,-0.5049,-0.5092,-0.51,-0.5107,-0.5136,-0.5146,-0.5026,-0.5026,-0.5026,0,-0.4325,-0.4409,-0.4435,-0.4494,-0.453,-0.4541,-0.4602,-0.4637,-0.4711,-0.4735,-0.4724,-0.4844,-0.4882,-0.497,-0.4989,-0.5014,-0.5032,-0.5014,-0.5097,-0.5104,-0.5111,-0.5139,-0.515,-0.5027,-0.5027,-0.5026,-0.5026,0,-0.4428,-0.4485,-0.4526,-0.4596,-0.4635,-0.4695,-0.4729,-0.4766,-0.4779,-0.4807,-0.4881,-0.4928,-0.4992,-0.5013,-0.5026,-0.5103,-0.5096,-0.509,-0.5071,-0.5122,-0.5149,-0.5159,-0.5028,-0.5028,-0.5027,-0.5027,0,0,-0.4499,-0.4579,-0.4594,-0.4626,-0.4689,-0.4735,-0.4793,-0.4855,-0.4887,-0.4935,-0.4987,-0.5066,-0.5061,-0.5098,-0.5115,-0.5153,-0.5211,-0.5143,-0.5144,-0.5156,-0.53,-0.5306,-0.5318,-0.5214,-0.5216,-0.5218,-0.5296,0,-0.4572,-0.4678,-0.4702,-0.4793,-0.4847,-0.4857,-0.4908,-0.4953,-0.4979,-0.5029,-0.5058,-0.5115,-0.5102,-0.5125,-0.5162,-0.5196,-0.5241,-0.519,-0.5264,-0.5266,-0.5253,-0.5332,-0.5339,-0.5411,-0.5306,-0.5308,-0.5309,0,-0.4674,-0.4724,-0.482,-0.4876,-0.4899,-0.4945,-0.5004,-0.505,-0.51,-0.5116,-0.5157,-0.5169,-0.5231,-0.5205,-0.5291,-0.5256,-0.5286,-0.5307,-0.531,-0.5321,-0.5293,-0.5348,-0.5434,-0.5446,-0.5326,-0.5324,-0.5323,0,-0.4718,-0.481,-0.488,-0.4906,-0.4972,-0.5004,-0.5032,-0.508,-0.5116,-0.5166,-0.5189,-0.5246,-0.5278,-0.5321,-0.5349,-0.5328,-0.5433,-0.5409,-0.545,-0.5449,-0.5475,-0.5473,-0.557,-0.5489,-0.5489,-0.5488,-0.5488,0,-0.48,-0.4859,-0.4901,-0.4944,-0.501,-0.5035,-0.51,-0.5129,-0.5171,-0.522,-0.5231,-0.5277,-0.5308,-0.5359,-0.538,-0.5448,-0.5462,-0.5478,-0.5483,-0.5479,-0.5477,-0.5502,-0.5499,-0.5491,-0.5491,-0.549,-0.5489,0,-0.4864,-0.4893,-0.497,-0.5025,-0.504,-0.5086,-0.5134,-0.5176,-0.5201,-0.5263,-0.5279,-0.5319,-0.5378,-0.5409,-0.5483,-0.5497,-0.5575,-0.5576,-0.5558,-0.5561,-0.56,-0.5597,-0.572,-0.5738,-0.5641,-0.5642,-0.5643,0,-0.4916,-0.4961,-0.502,-0.5053,-0.5083,-0.5136,-0.5172,-0.5197,-0.5234,-0.5293,-0.5328,-0.5387,-0.5437,-0.5531,-0.5567,-0.5623,-0.5628,-0.5666,-0.5637,-0.5631,-0.5632,-0.563,-0.5635,-0.5673,-0.5674,-0.5675,-0.5675,0,-0.5006,-0.5017,-0.5068,-0.5124,-0.5166,-0.5211,-0.5256,-0.5282,-0.5315,-0.5355,-0.5416,-0.5454,-0.5528,-0.5588,-0.5646,-0.5676,-0.5682,-0.5684,-0.5697,-0.5694,-0.5683,-0.5692,-0.5576,-0.5682,-0.5681,-0.5681,-0.568,-0.568,-0.5067,-0.5108,-0.5156,-0.5212,-0.5247,-0.5288,-0.5331,-0.536,-0.5411,-0.5474,-0.5484,-0.5549,-0.5596,-0.5675,-0.5706,-0.5757,-0.5749,-0.5767,-0.5772,-0.5777,-0.578,-0.5672,-0.5767,-0.5767,-0.5767,-0.5767,-0.5766,0,-0.516,-0.519,-0.5241,-0.5302,-0.5346,-0.5345,-0.5394,-0.5431,-0.5487,-0.553,-0.5578,-0.5647,-0.5704,-0.5743,-0.58,-0.5833,-0.5838,-0.5848,-0.5848,-0.5855,-0.5783,-0.5767,-0.5844,-0.5844,-0.5844,-0.5844,-0.5844,-0.5844,-0.5214,-0.5283,-0.53,-0.5387,-0.5417,-0.548,-0.5508,-0.5545,-0.558,-0.5656,-0.5703,-0.5727,-0.5769,-0.5829,-0.5882,-0.5891,-0.5913,-0.5924,-0.5935,-0.5868,-0.586,-0.5852,-0.5838,-0.5928,-0.5928,-0.6003,-0.6004,-0.6004]}]]